Macon, GA

6:50 PM EST on November 21, 2019 (GMT -0500)
Middle Georgia Regional

Weather History for KMCN - October, 2019

Change the Weather History Date:

Monday, October 21, 2019

  Actual Average Record
Temperature  
Mean Temperature 69 °F 63 °F  
Max Temperature 84 °F 76 °F 90 °F (1963)
Min Temperature 54 °F 51 °F 31 °F (1989)
Degree Days  
Heating Degree Days 0 4  
Month to date heating degree days 15 47  
Since 1 July heating degree days 15 53  
Cooling Degree Days 4 2  
Month to date cooling degree days 193 78  
Year to date cooling degree days 2745 2128  
Growing Degree Days 19 (Base 50)    
Moisture  
Dew Point 58 °F    
Average Humidity 72    
Maximum Humidity 100    
Minimum Humidity 43    
Precipitation  
Precipitation T in 0.08 in 0.91 in (1962)
Month to date precipitation 3.43 1.95  
Year to date precipitation 30.75 37.48  
Sea Level Pressure  
Sea Level Pressure 29.97 in    
Wind  
Wind Speed 3 mph (ESE)    
Max Wind Speed 14 mph    
Max Gust Speed 27 mph    
Visibility 4 miles    
Events Fog    
T = Trace of Precipitation, MM = Missing Value Source: NWS Daily Summary

Daily Weather History Graph

Daily Weather History Graph

Search for Another Location

Airport or City:

Astronomy

Oct. 21, 2019 Rise Set
Actual Time 7:43 AM EDT 6:54 PM EDT
Civil Twilight 7:18 AM EDT 7:19 PM EDT
Nautical Twilight 6:49 AM EDT 7:48 PM EDT
Astronomical Twilight 6:20 AM EDT 8:17 PM EDT
Moon 12:16 AM EDT 2:49 PM EDT
Length of Visible Light 12h 01m
Length of Day
11h 11m
Waning Gibbous, 48% of the Moon is Illuminated
Oct 21
Waning Gibbous
Oct 27
New
Nov 4
First Quarter
Nov 12
Full
Nov 19
Last Quarter

Hourly Weather History & Observations

Time (EDT) Temp. Heat Index Dew Point Humidity Pressure Visibility Wind Dir Wind Speed Gust Speed Precip Events Conditions
12:53 AM 59.0 °F - 57.0 °F 93% 29.98 in 4.0 mi Calm Calm - N/A   Clear
1:02 AM 59.0 °F - 57.0 °F 93% 29.98 in 1.8 mi Calm Calm - N/A   Clear
1:05 AM 57.9 °F - 57.0 °F 97% 29.98 in 1.0 mi Calm Calm - N/A   Mist
1:12 AM 57.9 °F - 57.0 °F 97% 29.98 in 0.8 mi Calm Calm - N/A   Mist
1:25 AM 57.0 °F - 55.9 °F 96% 29.98 in 1.2 mi SE 3.5 mph - N/A   Partly Cloudy
1:29 AM 57.0 °F - 55.0 °F 93% 29.98 in 4.0 mi Calm Calm - N/A   Partly Cloudy
1:36 AM 57.9 °F - 55.9 °F 93% 29.98 in 1.8 mi Calm Calm - N/A   Partly Cloudy
1:53 AM 57.9 °F - 55.9 °F 93% 29.97 in 0.5 mi Calm Calm - N/A Fog Fog
2:03 AM 57.9 °F - 55.9 °F 93% 29.98 in 1.5 mi Calm Calm - N/A   Partly Cloudy
2:05 AM 57.9 °F - 55.9 °F 93% 29.98 in 3.0 mi Calm Calm - N/A   Partly Cloudy
2:21 AM 57.0 °F - 55.9 °F 96% 29.98 in 2.0 mi Calm Calm - N/A   Scattered Clouds
2:26 AM 57.0 °F - 55.9 °F 96% 29.97 in 2.5 mi Calm Calm - N/A   Mostly Cloudy
2:31 AM 57.0 °F - 55.0 °F 93% 29.98 in 0.8 mi Calm Calm - N/A   Mist
2:41 AM 57.0 °F - 55.9 °F 96% 29.98 in 2.0 mi Calm Calm - N/A   Overcast
2:48 AM 57.2 °F - 55.4 °F 94% 29.97 in 7.0 mi Calm Calm - N/A   Overcast
2:53 AM 57.0 °F - 55.9 °F 96% 29.96 in 9.0 mi Calm Calm - N/A   Overcast
2:58 AM 57.0 °F - 55.0 °F 93% 29.97 in 1.5 mi Calm Calm - N/A   Overcast
3:06 AM 57.0 °F - 55.9 °F 96% 29.97 in 0.5 mi Calm Calm - N/A Fog Fog
3:15 AM 57.0 °F - 55.0 °F 93% 29.96 in 2.5 mi NNE 3.5 mph - N/A   Overcast
3:22 AM 57.0 °F - 55.0 °F 93% 29.96 in 5.0 mi NE 3.5 mph - N/A   Mostly Cloudy
3:32 AM 57.0 °F - 55.0 °F 93% 29.96 in 9.0 mi NE 3.5 mph - N/A   Scattered Clouds
3:45 AM 57.0 °F - 55.0 °F 93% 29.96 in 1.5 mi East 3.5 mph - N/A   Partly Cloudy
3:49 AM 55.4 °F - 55.4 °F 100% 29.96 in 0.8 mi Calm Calm - N/A   Mist
3:53 AM 55.9 °F - 55.0 °F 97% 29.94 in 0.8 mi Calm Calm - N/A   Mist
4:10 AM 55.9 °F - 55.0 °F 97% 29.96 in 2.0 mi SSE 3.5 mph - N/A   Mostly Cloudy
4:14 AM 57.0 °F - 55.0 °F 93% 29.96 in 0.8 mi SE 3.5 mph - N/A   Mist
4:24 AM 57.0 °F - 55.9 °F 96% 29.96 in 0.2 mi SSE 3.5 mph - N/A Fog Fog
4:35 AM 57.0 °F - 55.9 °F 96% 29.96 in 0.2 mi Calm Calm - N/A Fog Fog
4:53 AM 57.0 °F - 55.9 °F 96% 29.96 in 0.2 mi Calm Calm - N/A Fog Fog
5:12 AM 57.0 °F - 55.0 °F 93% 29.96 in 0.5 mi Calm Calm - N/A Fog Fog
5:41 AM 55.9 °F - 55.0 °F 97% 29.97 in 0.2 mi Calm Calm - N/A Fog Fog
5:50 AM 55.4 °F - 55.4 °F 100% 29.97 in 0.2 mi Calm Calm - N/A Fog Fog
5:53 AM 55.9 °F - 55.0 °F 97% 29.97 in 0.2 mi Calm Calm - N/A Fog Fog
6:22 AM 55.0 °F - 54.0 °F 96% 29.98 in 0.5 mi Calm Calm - N/A Fog Fog
6:32 AM 55.0 °F - 54.0 °F 96% 29.98 in 0.2 mi Calm Calm - N/A Fog Fog
6:42 AM 55.0 °F - 54.0 °F 96% 29.98 in 0.5 mi Calm Calm - N/A Fog Fog
6:53 AM 55.0 °F - 54.0 °F 96% 29.97 in 0.5 mi Calm Calm - N/A Fog Fog
7:04 AM 55.0 °F - 54.0 °F 96% 29.98 in 0.2 mi Calm Calm - N/A Fog Fog
7:12 AM 55.0 °F - 54.0 °F 96% 29.98 in 0.8 mi Calm Calm - N/A   Mist
7:17 AM 55.0 °F - 54.0 °F 96% 29.98 in 2.0 mi Calm Calm - N/A   Overcast
7:27 AM 55.0 °F - 53.1 °F 93% 29.98 in 1.5 mi Calm Calm - N/A   Overcast
7:41 AM 55.0 °F - 53.1 °F 93% 29.98 in 0.8 mi Calm Calm - N/A   Overcast
7:53 AM 55.9 °F - 55.0 °F 97% 29.98 in 0.5 mi ENE 3.5 mph - N/A Fog Fog
8:00 AM 57.0 °F - 55.9 °F 96% 29.98 in 0.2 mi ENE 3.5 mph - N/A Fog Fog
8:53 AM 59.0 °F - 57.9 °F 96% 29.99 in 0.2 mi Calm Calm - N/A Fog Fog
9:53 AM 62.1 °F - 60.1 °F 93% 30.01 in 0.2 mi Calm Calm - N/A Fog Fog
10:44 AM 64.9 °F - 63.0 °F 93% 30.02 in 0.8 mi Calm Calm - N/A   Mist
10:50 AM 64.4 °F - 62.6 °F 94% 30.02 in 2.0 mi Variable 3.5 mph - N/A   Overcast
10:53 AM 64.9 °F - 63.0 °F 93% 30.01 in 3.0 mi Calm Calm - N/A   Overcast
11:09 AM 66.0 °F - 64.0 °F 93% 30.03 in 8.0 mi Calm Calm - N/A   Scattered Clouds
11:53 AM 73.9 °F - 63.0 °F 68% 30.02 in 10.0 mi SSE 9.2 mph - N/A   Scattered Clouds
12:53 PM 78.1 °F - 63.0 °F 60% 30.01 in 10.0 mi Variable 6.9 mph - N/A   Scattered Clouds
1:53 PM 80.1 °F 81.5 °F 63.0 °F 56% 29.97 in 10.0 mi Variable 6.9 mph - N/A   Clear
2:53 PM 81.0 °F 81.9 °F 62.1 °F 52% 29.95 in 10.0 mi SE 8.1 mph - N/A   Clear
3:53 PM 82.9 °F 83.2 °F 60.1 °F 46% 29.94 in 10.0 mi South 6.9 mph - N/A   Clear
4:53 PM 82.0 °F 82.0 °F 57.9 °F 44% 29.94 in 10.0 mi South 5.8 mph - N/A   Clear
5:53 PM 79.0 °F - 61.0 °F 54% 29.93 in 10.0 mi SE 3.5 mph - N/A   Clear
6:53 PM 73.9 °F - 64.0 °F 71% 29.93 in 10.0 mi Calm Calm - N/A   Scattered Clouds
7:53 PM 72.0 °F - 64.0 °F 76% 29.94 in 10.0 mi Calm Calm - N/A   Overcast
8:53 PM 69.1 °F - 64.9 °F 87% 29.95 in 10.0 mi Calm Calm - N/A   Partly Cloudy
9:53 PM 68.0 °F - 64.9 °F 90% 29.96 in 10.0 mi Calm Calm - N/A   Clear
10:53 PM 66.9 °F - 64.0 °F 90% 29.96 in 10.0 mi Calm Calm - N/A   Partly Cloudy
11:53 PM 68.0 °F - 64.9 °F 90% 29.93 in 10.0 mi SE 6.9 mph - N/A   Clear